• In Hungary
  • List of Countries
  • For 7 days
  • Water Temperature
  • Satellite Maps
  • Weather Map
  • News
  • Weather Widgets
  • user-avatar
    Login

    Hourly Weather Plymouth

    Today, 18 October, Thursday

    Time Temperature Precipitation Wind Pressure Humidity
    00:00 +11°C° 0 mm 6 mps 767 mmHg 83%
    01:00 +11°C° 0 mm 6 mps 767 mmHg 85%
    02:00 +10°C° 0 mm 6 mps 767 mmHg 88%
    03:00 +9°C° 0 mm 6 mps 767 mmHg 90%
    04:00 +9°C° 0 mm 6 mps 767 mmHg 91%
    05:00 +9°C° 0 mm 6 mps 767 mmHg 92%
    06:00 +9°C° 0 mm 6 mps 767 mmHg 92%
    07:00 +9°C° 0 mm 6 mps 767 mmHg 90%
    08:00 +10°C° 0 mm 6 mps 767 mmHg 88%
    09:00 +11°C° 0 mm 6 mps 767 mmHg 86%
    10:00 +13°C° 0 mm 6 mps 768 mmHg 82%
    11:00 +14°C° 0 mm 6 mps 768 mmHg 79%
    12:00 +15°C° 0 mm 5 mps 768 mmHg 75%
    13:00 +15°C° 0 mm 5 mps 767 mmHg 75%
    14:00 +15°C° 0 mm 5 mps 767 mmHg 74%
    15:00 +15°C° 0 mm 5 mps 767 mmHg 74%
    16:00 +14°C° 0 mm 4 mps 767 mmHg 79%
    17:00 +13°C° 0 mm 4 mps 767 mmHg 83%
    18:00 +12°C° 0 mm 4 mps 767 mmHg 88%
    19:00 +11°C° 0 mm 4 mps 767 mmHg 89%
    20:00 +11°C° 0 mm 4 mps 767 mmHg 90%
    21:00 +11°C° 0 mm 4 mps 767 mmHg 90%
    22:00 +10°C° 0 mm 3 mps 767 mmHg 91%
    23:00 +10°C° 0 mm 3 mps 767 mmHg 91%

    Tomorrow, 19 October, Friday

    Time Temperature Precipitation Wind Pressure Humidity
    00:00 +10°C° 0 mm 3 mps 767 mmHg 92%
    01:00 +10°C° 0 mm 3 mps 767 mmHg 92%
    02:00 +10°C° 0 mm 3 mps 767 mmHg 92%
    03:00 +10°C° 0 mm 3 mps 767 mmHg 93%
    04:00 +9°C° 0 mm 3 mps 767 mmHg 93%
    05:00 +9°C° 0 mm 2 mps 767 mmHg 93%
    06:00 +9°C° 0 mm 2 mps 767 mmHg 93%
    07:00 +10°C° 0 mm 2 mps 767 mmHg 90%
    08:00 +12°C° 0 mm 2 mps 767 mmHg 87%
    09:00 +13°C° 0 mm 2 mps 768 mmHg 84%
    10:00 +14°C° 0 mm 2 mps 768 mmHg 79%
    11:00 +16°C° 0 mm 2 mps 768 mmHg 74%
    12:00 +17°C° 0 mm 2 mps 768 mmHg 69%
    13:00 +17°C° 0 mm 2 mps 768 mmHg 70%
    14:00 +17°C° 0 mm 2 mps 768 mmHg 70%
    15:00 +17°C° 0 mm 2 mps 768 mmHg 70%
    16:00 +16°C° 0 mm 2 mps 768 mmHg 75%
    17:00 +14°C° 0 mm 2 mps 768 mmHg 81%
    18:00 +13°C° 0 mm 1 mps 769 mmHg 87%
    19:00 +12°C° 0 mm 1 mps 769 mmHg 87%
    20:00 +12°C° 0 mm 1 mps 769 mmHg 87%
    21:00 +12°C° 0 mm 1 mps 770 mmHg 88%
    22:00 +12°C° 0 mm 1 mps 770 mmHg 88%
    23:00 +11°C° 0 mm 1 mps 770 mmHg 88%

    Day after tomorrow, 20 October, Saturday

    Time Temperature Precipitation Wind Pressure Humidity
    00:00 +10°C° 0 mm 2 mps 770 mmHg 88%
    01:00 +10°C° 0 mm 2 mps 770 mmHg 88%
    02:00 +10°C° 0 mm 2 mps 770 mmHg 87%
    03:00 +10°C° 0 mm 2 mps 770 mmHg 87%
    04:00 +10°C° 0 mm 2 mps 771 mmHg 87%
    05:00 +10°C° 0 mm 2 mps 771 mmHg 87%
    06:00 +9°C° 0 mm 2 mps 771 mmHg 86%
    07:00 +12°C° 0 mm 2 mps 771 mmHg 83%
    08:00 +13°C° 0 mm 2 mps 771 mmHg 80%
    09:00 +14°C° 0 mm 2 mps 772 mmHg 77%
    10:00 +15°C° 0 mm 2 mps 772 mmHg 73%
    11:00 +17°C° 0 mm 2 mps 772 mmHg 69%
    12:00 +18°C° 0 mm 2 mps 772 mmHg 65%
    13:00 +18°C° 0 mm 2 mps 772 mmHg 66%
    14:00 +18°C° 0 mm 2 mps 772 mmHg 67%
    15:00 +18°C° 0 mm 2 mps 771 mmHg 68%
    16:00 +16°C° 0 mm 2 mps 771 mmHg 74%
    17:00 +15°C° 0 mm 2 mps 771 mmHg 80%
    18:00 +13°C° 0 mm 1 mps 771 mmHg 87%
    19:00 +13°C° 0 mm 1 mps 771 mmHg 87%
    20:00 +13°C° 0 mm 1 mps 772 mmHg 88%
    21:00 +12°C° 0 mm 1 mps 772 mmHg 88%
    22:00 +12°C° 0 mm 2 mps 771 mmHg 88%
    23:00 +12°C° 0 mm 2 mps 771 mmHg 88%

    21 October, Sunday

    Time Temperature Precipitation Wind Pressure Humidity
    00:00 +12°C° 0 mm 2 mps 771 mmHg 88%
    01:00 +12°C° 0 mm 2 mps 771 mmHg 88%
    02:00 +12°C° 0 mm 2 mps 770 mmHg 88%
    03:00 +12°C° 0 mm 2 mps 770 mmHg 88%
    04:00 +10°C° 0 mm 2 mps 770 mmHg 88%
    05:00 +10°C° 0 mm 2 mps 770 mmHg 88%
    06:00 +10°C° 0 mm 2 mps 770 mmHg 88%
    07:00 +12°C° 0 mm 2 mps 770 mmHg 85%
    08:00 +13°C° 0 mm 2 mps 770 mmHg 82%
    09:00 +15°C° 0 mm 2 mps 770 mmHg 80%
    10:00 +16°C° 0 mm 2 mps 770 mmHg 74%
    11:00 +18°C° 0 mm 1 mps 770 mmHg 69%
    12:00 +19°C° 0 mm 1 mps 770 mmHg 64%
    13:00 +19°C° 0 mm 1 mps 770 mmHg 66%
    14:00 +19°C° 0 mm 1 mps 769 mmHg 67%
    15:00 +18°C° 0 mm 2 mps 769 mmHg 69%
    16:00 +17°C° 0 mm 2 mps 769 mmHg 76%
    17:00 +15°C° 0 mm 2 mps 769 mmHg 83%
    18:00 +12°C° 0 mm 3 mps 769 mmHg 90%
    19:00 +12°C° 0 mm 3 mps 770 mmHg 91%
    20:00 +12°C° 0 mm 4 mps 770 mmHg 92%
    21:00 +12°C° 0 mm 5 mps 771 mmHg 93%
    22:00 +13°C° 0 mm 5 mps 771 mmHg 93%
    23:00 +13°C° 0 mm 6 mps 771 mmHg 93%

    22 October, Monday

    Time Temperature Precipitation Wind Pressure Humidity
    00:00 +14°C° 0 mm 6 mps 772 mmHg 93%
    01:00 +12°C° 0 mm 7 mps 772 mmHg 88%
    02:00 +11°C° 0 mm 7 mps 772 mmHg 84%
    03:00 +11°C° 0 mm 8 mps 773 mmHg 79%
    04:00 +10°C° 0 mm 8 mps 773 mmHg 79%
    05:00 +9°C° 0 mm 8 mps 773 mmHg 80%
    06:00 +9°C° 0 mm 8 mps 774 mmHg 80%
    07:00 +8°C° 0 mm 9 mps 774 mmHg 80%
    08:00 +10°C° 0 mm 9 mps 775 mmHg 80%
    09:00 +10°C° 0 mm 9 mps 776 mmHg 81%
    10:00 +11°C° 0 mm 8 mps 776 mmHg 77%
    11:00 +11°C° 0 mm 8 mps 776 mmHg 73%
    12:00 +12°C° 0 mm 7 mps 776 mmHg 70%
    13:00 +12°C° 0 mm 7 mps 776 mmHg 68%
    14:00 +12°C° 0 mm 7 mps 776 mmHg 66%
    15:00 +12°C° 0 mm 7 mps 776 mmHg 65%
    16:00 +11°C° 0 mm 7 mps 777 mmHg 70%
    17:00 +9°C° 0 mm 6 mps 777 mmHg 75%
    18:00 +8°C° 0 mm 6 mps 777 mmHg 80%
    19:00 +8°C° 0 mm 6 mps 777 mmHg 82%
    20:00 +8°C° 0 mm 6 mps 777 mmHg 85%
    21:00 +8°C° 0 mm 6 mps 778 mmHg 87%
    22:00 +7°C° 0 mm 6 mps 778 mmHg 88%
    23:00 +7°C° 0 mm 5 mps 777 mmHg 88%

    23 October, Tuesday

    Time Temperature Precipitation Wind Pressure Humidity
    00:00 +7°C° 0 mm 5 mps 777 mmHg 88%
    01:00 +7°C° 0 mm 5 mps 777 mmHg 89%
    02:00 +7°C° 0 mm 5 mps 777 mmHg 90%
    03:00 +7°C° 0 mm 5 mps 776 mmHg 90%
    04:00 +7°C° 0 mm 6 mps 776 mmHg 91%
    05:00 +7°C° 0 mm 6 mps 776 mmHg 91%
    06:00 +8°C° 0 mm 6 mps 775 mmHg 92%
    07:00 +8°C° 0 mm 6 mps 775 mmHg 89%
    08:00 +9°C° 0 mm 7 mps 775 mmHg 86%
    09:00 +10°C° 0 mm 7 mps 775 mmHg 83%
    10:00 +11°C° 0 mm 7 mps 775 mmHg 80%
    11:00 +12°C° 0 mm 7 mps 775 mmHg 77%
    12:00 +14°C° 0 mm 7 mps 774 mmHg 74%
    13:00 +12°C° 0 mm 7 mps 774 mmHg 75%
    14:00 +12°C° 0 mm 7 mps 773 mmHg 76%
    15:00 +12°C° 0 mm 7 mps 773 mmHg 76%
    16:00 +11°C° 0 mm 7 mps 773 mmHg 77%
    17:00 +11°C° 0 mm 7 mps 773 mmHg 78%
    18:00 +10°C° 0 mm 7 mps 773 mmHg 79%
    19:00 +10°C° 0 mm 7 mps 773 mmHg 79%
    20:00 +10°C° 0 mm 6 mps 773 mmHg 78%
    21:00 +10°C° 0 mm 6 mps 773 mmHg 78%
    22:00 +10°C° 0 mm 5 mps 773 mmHg 80%
    23:00 +9°C° 0 mm 5 mps 773 mmHg 82%
    Show more